Flag for Pakistan Weather past 2 weeks in Sargodha, Pakistan

Now
88 °F

Clear.


Feels Like: 98 °F
Forecast: 75 / 101 °F
Wind: No wind

Location: Lahore Airport

Current Time: Sep 18, 2014 at 9:39:42 PM

Latest Report: Sep 18, 2014 at 8:55 PM


Visibility: 3 mi

Pressure: 29.68 "Hg

Humidity: 66%

Dew point: 75 °F

Location of SargodhaLocation

Historic Weather in Sargodha — Graph

°F

Sargodha temperature yesterday

Maximum temperature yesterday: 95 °F (at 1:00 PM)
Minimum temperature yesterday: 79 °F (at 3:25 AM)
Average temperature yesterday: 87 °F

Past Weeks' High & Low Weather Summary

 TemperatureHumidityPressure
High95 °F (Sep 11, 1:25 PM)100% (Sep 3, 11:55 PM)29.86 "Hg (Sep 3, 11:55 PM)
Low72 °F (Sep 4, 2:55 AM)49% (Sep 15, 3:55 PM)29.36 "Hg (Sep 5, 5:00 PM)
Average83 °F77%29.65 "Hg
* Reported Sep 3 8:55 PM — Sep 18 8:25 PM, Sargodha, Weather by CustomWeather, © 2014

Note: Actual official high and low records may vary slightly from our data, if they occured in-between our weather recording intervals... More about our weather records

Advertising

Sargodha weather history for previous 24 hours

 ConditionsComfort  
Time TempWeatherWind HumidityBarometerVisibility
8:25 PM
Sep 18
90 °FClear.No wind59%29.68 "Hg3 mi
8:00 PM90 °FClear.3 mph59%29.65 "Hg3 mi
7:00 PM90 °FPassing clouds.No wind59%29.65 "Hg3 mi
6:30 PM91 °FPassing clouds.5 mph56%29.65 "Hg3 mi
6:00 PM93 °FScattered clouds.3 mph53%29.65 "Hg3 mi
5:00 PM95 °FScattered clouds.3 mph50%29.65 "Hg3 mi
4:30 PM95 °FScattered clouds.3 mph50%29.65 "Hg3 mi
3:59 PM95 °FScattered clouds.No wind53%29.65 "Hg3 mi
3:29 PM95 °FScattered clouds.No wind50%29.65 "Hg3 mi
2:59 PM95 °FScattered clouds.No wind53%29.65 "Hg3 mi
2:29 PM95 °FScattered clouds.No wind50%29.65 "Hg3 mi
1:25 PM95 °FScattered clouds.3 mph53%29.68 "Hg4 mi
12:59 PM95 °FScattered clouds.5 mph53%29.68 "Hg4 mi
12:29 PM95 °FScattered clouds.6 mph53%29.71 "Hg4 mi
11:59 AM95 °FPassing clouds.3 mph53%29.71 "Hg4 mi
11:29 AM93 °FPassing clouds.5 mph56%29.71 "Hg4 mi
10:59 AM93 °FPassing clouds.6 mph56%29.71 "Hg4 mi
10:29 AM91 °FClear.3 mph59%29.71 "Hg4 mi
9:55 AM91 °FClear.6 mph59%29.74 "Hg3 mi
9:25 AM90 °FClear.3 mph67%29.74 "Hg3 mi
8:55 AM88 °FClear.No wind70%29.71 "Hg3 mi
8:25 AM86 °FClear.No wind75%29.71 "Hg3 mi
7:55 AM84 °FClear.3 mph79%29.68 "Hg4 mi
7:25 AM82 °FClear.No wind79%29.68 "Hg4 mi
6:55 AM81 °FClear.3 mph84%29.68 "Hg3 mi
6:25 AM81 °FClear.3 mph89%29.68 "Hg2 mi
4:55 AM81 °FClear.3 mph89%29.65 "Hg2 mi
4:25 AM82 °FClear.5 mph84%29.65 "Hg2 mi
3:55 AM82 °FClear.No wind84%29.65 "Hg2 mi
3:25 AM84 °FClear.3 mph79%29.62 "Hg2 mi
2:55 AM84 °FClear.No wind79%29.62 "Hg2 mi
2:25 AM84 °FClear.No wind79%29.62 "Hg2 mi
1:55 AM84 °FClear.No wind79%29.62 "Hg2 mi
1:25 AM84 °FClear.No wind79%29.62 "Hg2 mi
12:55 AM84 °FClear.No wind79%29.65 "Hg2 mi
12:25 AM84 °FClear.No wind79%29.62 "Hg2 mi
11:55 PM
Sep 17
84 °FClear.No wind79%29.62 "Hg2 mi
11:25 PM84 °FClear.No wind79%29.62 "Hg2 mi
10:55 PM84 °FClear.3 mph79%29.65 "Hg2 mi
10:25 PM84 °FClear.No wind79%29.65 "Hg2 mi
9:55 PM86 °FClear.3 mph75%29.62 "Hg2 mi
9:25 PM86 °FClear.3 mph75%29.62 "Hg2 mi
Weather by CustomWeather, © 2014

See weather overviewHow to use our weather pages